This demonstration page uses our WeatherBlox Daily Observations layout. Learn more.

Left ArrowRight Arrow

39.12711, -84.51439

Hourly Observations for September 9, 2018

Temp ( °F °C ) Dew Point ( °F °C ) Humidity (%) Winds ( mph kmh ) Pressure ( in mb ) Visibility ( mi km ) Precip ( " mm )
12:01 am 00:01 Cloudy with Heavy Rain 63 17 N/A N/A ENE 7 11 29.91 1013 3 5 0.04 1.02
12:15 am 00:15 Cloudy with Heavy Rain 61 16 N/A N/A VRB 5 7 29.91 1013 3 4 0.11 2.79
12:26 am 00:26 Cloudy with Heavy Rain 61 16 N/A N/A NNE 8 13 29.91 1013 1 2 0.23 5.84
12:32 am 00:32 Cloudy with Heavy Rain 61 16 N/A N/A NNE 7 11 29.91 1013 2 3 0.26 6.60
12:48 am 00:48 Cloudy with Heavy Rain 61 16 N/A N/A NE 16 26 29.88 1012 2 3 0.41 10.41
12:53 am 00:53 Cloudy with Heavy Rain 61 16 N/A N/A NNE 12 19 29.89 1012 2 2 0.45 11.43
1:03 am 01:03 Cloudy with Heavy Rain 61 16 N/A N/A N 9 15 29.91 1013 2 3 0.06 1.52
1:06 am 01:06 Cloudy with Heavy Rain 61 16 N/A N/A N 8 13 29.91 1013 3 4 0.07 1.78
1:16 am 01:16 Cloudy with Heavy Rain 61 16 N/A N/A NE 8 13 29.91 1013 2 3 0.15 3.81
1:20 am 01:20 Cloudy with Heavy Rain 61 16 N/A N/A ENE 7 11 29.91 1013 2 3 0.19 4.83
1:25 am 01:25 Cloudy with Heavy Rain 61 16 N/A N/A NNE 6 9 29.91 1013 2 3 0.21 5.33
1:39 am 01:39 Cloudy with Heavy Rain 61 16 N/A N/A NE 12 19 29.88 1012 3 4 0.29 7.37
1:48 am 01:48 Cloudy with Light Rain 61 16 N/A N/A NNE 10 17 29.88 1012 5 8 0.30 7.62
1:53 am 01:53 Cloudy with Light Rain 61 16 N/A N/A NNE 9 15 29.88 1012 6 10 0.31 7.87
2:15 am 02:15 Cloudy with Light Rain 61 16 N/A N/A NNE 7 11 29.88 1012 4 6 0.04 1.02
2:27 am 02:27 Cloudy with Light Rain 61 16 N/A N/A N 6 9 29.88 1012 8 13 0.04 1.02
2:39 am 02:39 Cloudy with Heavy Rain 61 16 N/A N/A N 8 13 29.88 1012 3 4 0.10 2.54
2:53 am 02:53 Cloudy with Heavy Rain 61 16 N/A N/A NNE 8 13 29.87 1012 3 4 0.17 4.32
3:05 am 03:05 Cloudy with Light Rain 61 16 N/A N/A NNE 7 11 29.88 1012 3 5 0.05 1.27
3:15 am 03:15 Cloudy with Light Rain 61 16 N/A N/A NNE 6 9 29.88 1012 5 8 0.06 1.52
3:53 am 03:53 Cloudy with Heavy Rain 61 16 N/A N/A NNE 7 11 29.86 1011 2 3 0.13 3.30
4:01 am 04:01 Cloudy with Rain 61 16 N/A N/A NE 8 13 29.88 1012 2 3 0.04 1.02
4:06 am 04:06 Cloudy with Rain 61 16 N/A N/A NNE 8 13 29.88 1012 4 6 0.05 1.27
4:27 am 04:27 Cloudy 61 16 N/A N/A NNE 10 17 29.85 1011 10 16 0.05 1.27
4:53 am 04:53 Cloudy 61 16 N/A N/A NNE 8 13 29.85 1011 10 16 0.05 1.27
5:27 am 05:27 Cloudy with Rain 59 15 N/A N/A NNE 9 15 29.85 1011 2 3 0.09 2.29
5:38 am 05:38 Cloudy with Light Rain 59 15 N/A N/A NNE 10 17 29.85 1011 4 6 0.10 2.54
5:53 am 05:53 Cloudy with Heavy Rain 59 15 N/A N/A NNE 7 11 29.85 1011 2 3 0.17 4.32
6:03 am 06:03 Cloudy with Rain 59 15 N/A N/A NE 8 13 29.85 1011 3 5 0.04 1.02
6:25 am 06:25 Cloudy with Light Rain 59 15 N/A N/A NE 10 17 29.85 1011 3 5 0.07 1.78
6:53 am 06:53 Cloudy 59 15 N/A N/A NE 7 11 29.85 1011 9 14 0.07 1.78
7:14 am 07:14 Cloudy 59 15 N/A N/A NE 10 17 29.85 1011 10 16 0.00 0.00
7:53 am 07:53 Cloudy 59 15 N/A N/A NNE 7 11 29.86 1011 10 16 0.00 0.00
8:53 am 08:53 Cloudy with Light Rain N/A N/A N/A NE 9 15 N/A 4 6 0.01 0.25
9:53 am 09:53 Cloudy with Light Rain 59 15 N/A N/A NE 9 15 29.88 1012 9 14 0.00 0.03
10:53 am 10:53 Cloudy with Rain 59 15 N/A N/A NE 10 17 29.88 1012 4 6 0.03 0.76
11:53 am 11:53 Cloudy with Light Rain 60 15.6 60 15.6 100 100 ENE 8 13 29.89 1012 10 16 0.01 0.25
12:53 pm 12:53 Cloudy with Light Rain 61 16.1 61 16.1 100 100 NNE 8 13 29.87 1012 10 16 0.00 0.03
1:53 pm 13:53 Cloudy 62 16.7 61 16.1 96 96 NNE 6 9 29.85 1011 9 14 0.00 0.03
2:05 pm 14:05 Cloudy with Light Rain 61 16.1 61 16.1 100 100 NE 6 9 29.85 1011 3 5 0.01 0.25
2:29 pm 14:29 Cloudy with Light Rain 62 16.7 62 16.7 100 100 NNE 5 7 29.85 1011 3 5 0.01 0.25
2:53 pm 14:53 Cloudy with Light Rain 62 16.7 62 16.7 100 100 NNE 7 11 29.84 1010 3 5 0.01 0.25
3:53 pm 15:53 Cloudy with Light Rain 63 17.2 62 16.7 97 97 NNE 5 7 29.83 1010 5 8 0.01 0.25
4:53 pm 16:53 Cloudy with Light Rain 63 17.2 63 17.2 100 100 NE 6 9 29.82 1010 10 16 0.00 0.03
5:53 pm 17:53 Cloudy 63 17.2 62 16.7 97 97 NNE 7 11 29.82 1010 10 16 0.00 0.03
6:53 pm 18:53 Cloudy 62 16.7 62 16.7 100 100 NE 3 6 29.83 1010 7 11 0.03 0.76
7:00 pm 19:00 Cloudy with Rain 62 16.7 62 16.7 100 100 N 6 9 29.83 1010 2 3 0.02 0.51
7:34 pm 19:34 Cloudy with Light Rain 62 16.7 62 16.7 100 100 Calm 29.83 1010 5 8 0.14 3.56
7:53 pm 19:53 Cloudy with Light Rain 62 16.7 62 16.7 100 100 N 5 7 29.83 1010 8 13 0.14 3.56
8:53 pm 20:53 Cloudy 62 16.7 62 16.7 100 100 N 3 6 29.83 1010 10 16 0.00 0.03
9:53 pm 21:53 Mostly Cloudy 62 16.7 62 16.7 100 100 Calm 29.84 1011 10 16 0.00 0.00
10:24 pm 22:24 Cloudy 62 16.7 62 16.7 100 100 Calm 29.85 1011 10 16 0.00 0.00
10:53 pm 22:53 Cloudy 63 17.2 63 17.2 100 100 NW 5 7 29.85 1011 10 16 0.00 0.03
11:24 pm 23:24 Cloudy 63 17.2 62 16.7 97 97 NW 5 7 29.88 1012 10 16 0.00 0.00
11:41 pm 23:41 Cloudy 63 17.2 62 16.7 97 97 NNW 5 7 29.88 1012 10 16 0.00 0.00
11:53 pm 23:53 Cloudy 62 16.7 62 16.7 100 100 NW 3 6 29.86 1011 10 16 0.00 0.00

Powered by AerisWeather